Time,TemperatureF,DewpointF,PressureIn,WindDirection,WindDirectionDegrees,WindSpeedMPH,WindSpeedGustMPH,Humidity,HourlyPrecipIn,Conditions,Clouds,dailyrainin,SolarRadiationWatts/m^2,SoftwareType,DateUTC
2013-06-23 00:00:00,75.0,68.0,-100.00,SSW,202,1.0,-999.0,79,-99.99,,,-99.99,0.000000,,2013-06-23 04:00:00,
2013-06-23 00:31:00,75.0,68.0,-100.00,SSW,202,1.0,-999.0,79,-99.99,,,-99.99,0.000000,,2013-06-23 04:31:00,
2013-06-23 00:42:00,75.0,68.0,-100.00,SSW,202,1.0,-999.0,79,-99.99,,,-99.99,0.000000,,2013-06-23 04:42:00,
2013-06-23 00:52:00,75.0,68.0,-100.00,SSW,202,1.0,-999.0,79,-99.99,,,-99.99,0.000000,,2013-06-23 04:52:00,
2013-06-23 01:00:00,73.0,67.0,-100.00,SW,225,1.0,-999.0,79,-99.99,,,-99.99,0.000000,,2013-06-23 05:00:00,
2013-06-23 01:42:00,73.0,67.0,-100.00,SW,225,1.0,-999.0,79,-99.99,,,-99.99,0.000000,,2013-06-23 05:42:00,
2013-06-23 01:52:00,73.0,67.0,-100.00,SW,225,1.0,-999.0,79,-99.99,,,-99.99,0.000000,,2013-06-23 05:52:00,
2013-06-23 02:00:00,71.0,66.0,-100.00,SSW,202,0.0,-999.0,82,-99.99,,,-99.99,1.160000,,2013-06-23 06:00:00,
2013-06-23 02:43:00,71.0,66.0,-100.00,SSW,202,0.0,-999.0,82,-99.99,,,-99.99,1.160000,,2013-06-23 06:43:00,
2013-06-23 02:52:00,71.0,66.0,-100.00,SSW,202,0.0,-999.0,82,-99.99,,,-99.99,1.160000,,2013-06-23 06:52:00,
2013-06-23 03:00:00,69.0,65.0,-100.00,South,180,0.0,-999.0,88,-99.99,,,-99.99,0.000000,,2013-06-23 07:00:00,
2013-06-23 03:43:00,69.0,65.0,-100.00,South,180,0.0,-999.0,88,-99.99,,,-99.99,0.000000,,2013-06-23 07:43:00,
2013-06-23 03:53:00,69.0,65.0,-100.00,South,180,0.0,-999.0,88,-99.99,,,-99.99,0.000000,,2013-06-23 07:53:00,
2013-06-23 04:00:00,67.0,65.0,-100.00,East,90,0.0,-999.0,93,-99.99,,,-99.99,1.160000,,2013-06-23 08:00:00,
2013-06-23 04:43:00,67.0,65.0,-100.00,East,90,0.0,-999.0,93,-99.99,,,-99.99,1.160000,,2013-06-23 08:43:00,
2013-06-23 04:53:00,67.0,65.0,-100.00,East,90,0.0,-999.0,93,-99.99,,,-99.99,1.160000,,2013-06-23 08:53:00,
2013-06-23 05:00:00,67.0,65.0,-100.00,SW,225,1.0,-999.0,92,-99.99,,,-99.99,0.000000,,2013-06-23 09:00:00,
2013-06-23 05:43:00,67.0,65.0,-100.00,SW,225,1.0,-999.0,92,-99.99,,,-99.99,0.000000,,2013-06-23 09:43:00,
2013-06-23 05:54:00,67.0,65.0,-100.00,SW,225,1.0,-999.0,92,-99.99,,,-99.99,0.000000,,2013-06-23 09:54:00,
2013-06-23 06:00:00,65.0,63.0,-100.00,WSW,247,0.0,-999.0,92,-99.99,,,-99.99,0.000000,,2013-06-23 10:00:00,
2013-06-23 06:43:00,65.0,63.0,-100.00,WSW,247,0.0,-999.0,92,-99.99,,,-99.99,0.000000,,2013-06-23 10:43:00,
2013-06-23 06:53:00,65.0,63.0,-100.00,WSW,247,0.0,-999.0,92,-99.99,,,-99.99,0.000000,,2013-06-23 10:53:00,
2013-06-23 07:00:00,65.0,64.0,-100.00,West,270,1.0,-999.0,94,-99.99,,,-99.99,29.000000,,2013-06-23 11:00:00,
2013-06-23 07:33:00,65.0,64.0,-100.00,West,270,1.0,-999.0,94,-99.99,,,-99.99,29.000000,,2013-06-23 11:33:00,
2013-06-23 07:43:00,65.0,64.0,-100.00,West,270,1.0,-999.0,94,-99.99,,,-99.99,29.000000,,2013-06-23 11:43:00,
2013-06-23 07:53:00,65.0,64.0,-100.00,West,270,1.0,-999.0,94,-99.99,,,-99.99,29.000000,,2013-06-23 11:53:00,
2013-06-23 08:00:00,69.0,65.0,-100.00,South,180,2.0,-999.0,88,-99.99,,,-99.99,124.120003,,2013-06-23 12:00:00,
2013-06-23 08:43:00,69.0,65.0,-100.00,South,180,2.0,-999.0,88,-99.99,,,-99.99,124.120003,,2013-06-23 12:43:00,
2013-06-23 08:53:00,69.0,65.0,-100.00,South,180,2.0,-999.0,88,-99.99,,,-99.99,124.120003,,2013-06-23 12:53:00,
2013-06-23 09:00:00,71.0,66.0,-100.00,South,180,2.0,-999.0,83,-99.99,,,-99.99,213.440002,,2013-06-23 13:00:00,
2013-06-23 09:43:00,71.0,66.0,-100.00,South,180,2.0,-999.0,83,-99.99,,,-99.99,213.440002,,2013-06-23 13:43:00,
2013-06-23 09:54:00,71.0,66.0,-100.00,South,180,2.0,-999.0,83,-99.99,,,-99.99,213.440002,,2013-06-23 13:54:00,
2013-06-23 10:00:00,77.0,67.0,-100.00,SSW,202,3.0,-999.0,73,-99.99,,,-99.99,443.119995,,2013-06-23 14:00:00,
2013-06-23 10:44:00,77.0,67.0,-100.00,SSW,202,3.0,-999.0,73,-99.99,,,-99.99,443.119995,,2013-06-23 14:44:00,
2013-06-23 10:52:00,77.0,67.0,-100.00,SSW,202,3.0,-999.0,73,-99.99,,,-99.99,443.119995,,2013-06-23 14:52:00,
2013-06-23 11:00:00,79.0,67.0,-100.00,South,180,4.0,-999.0,65,-99.99,,,-99.99,562.599976,,2013-06-23 15:00:00,
2013-06-23 11:43:00,79.0,67.0,-100.00,South,180,4.0,-999.0,65,-99.99,,,-99.99,562.599976,,2013-06-23 15:43:00,
2013-06-23 11:53:00,79.0,67.0,-100.00,South,180,4.0,-999.0,65,-99.99,,,-99.99,562.599976,,2013-06-23 15:53:00,
2013-06-23 12:00:00,82.0,66.0,-100.00,SSW,202,4.0,-999.0,59,-99.99,,,-99.99,605.520020,,2013-06-23 16:00:00,
2013-06-23 12:43:00,82.0,66.0,-100.00,SSW,202,4.0,-999.0,59,-99.99,,,-99.99,605.520020,,2013-06-23 16:43:00,
2013-06-23 12:53:00,82.0,66.0,-100.00,SSW,202,4.0,-999.0,59,-99.99,,,-99.99,605.520020,,2013-06-23 16:53:00,
2013-06-23 13:00:00,85.0,68.0,-100.00,WSW,247,3.0,-999.0,57,-99.99,,,-99.99,767.919983,,2013-06-23 17:00:00,
2013-06-23 13:34:00,85.0,68.0,-100.00,WSW,247,3.0,-999.0,57,-99.99,,,-99.99,767.919983,,2013-06-23 17:34:00,
2013-06-23 13:43:00,85.0,68.0,-100.00,WSW,247,3.0,-999.0,57,-99.99,,,-99.99,767.919983,,2013-06-23 17:43:00,
2013-06-23 13:53:00,85.0,68.0,-100.00,WSW,247,3.0,-999.0,57,-99.99,,,-99.99,767.919983,,2013-06-23 17:53:00,
2013-06-23 14:00:00,87.0,67.0,-100.00,SW,225,4.0,-999.0,51,-99.99,,,-99.99,756.320007,,2013-06-23 18:00:00,
2013-06-23 14:43:00,87.0,67.0,-100.00,SW,225,4.0,-999.0,51,-99.99,,,-99.99,756.320007,,2013-06-23 18:43:00,
2013-06-23 14:53:00,87.0,67.0,-100.00,SW,225,4.0,-999.0,51,-99.99,,,-99.99,756.320007,,2013-06-23 18:53:00,
2013-06-23 15:00:00,89.0,68.0,-100.00,SW,225,5.0,-999.0,49,-99.99,,,-99.99,750.520020,,2013-06-23 19:00:00,
2013-06-23 15:43:00,89.0,68.0,-100.00,SW,225,5.0,-999.0,49,-99.99,,,-99.99,750.520020,,2013-06-23 19:43:00,
2013-06-23 15:53:00,89.0,68.0,-100.00,SW,225,5.0,-999.0,49,-99.99,,,-99.99,750.520020,,2013-06-23 19:53:00,
2013-06-23 16:00:00,88.0,68.0,-100.00,SW,225,5.0,-999.0,50,-99.99,,,-99.99,665.840027,,2013-06-23 20:00:00,
2013-06-23 16:42:00,88.0,68.0,-100.00,SW,225,5.0,-999.0,50,-99.99,,,-99.99,665.840027,,2013-06-23 20:42:00,
2013-06-23 16:53:00,88.0,68.0,-100.00,SW,225,5.0,-999.0,50,-99.99,,,-99.99,665.840027,,2013-06-23 20:53:00,
2013-06-23 17:00:00,89.0,67.0,-100.00,SW,225,5.0,-999.0,49,-99.99,,,-99.99,625.239990,,2013-06-23 21:00:00,
2013-06-23 17:44:00,89.0,67.0,-100.00,SW,225,5.0,-999.0,49,-99.99,,,-99.99,625.239990,,2013-06-23 21:44:00,
2013-06-23 17:52:00,89.0,67.0,-100.00,SW,225,5.0,-999.0,49,-99.99,,,-99.99,625.239990,,2013-06-23 21:52:00,